Time,TemperatureF,DewpointF,PressureIn,WindDirection,WindDirectionDegrees,WindSpeedMPH,WindSpeedGustMPH,Humidity,HourlyPrecipIn,Conditions,Clouds,dailyrainin,SoftwareType,DateUTC
2013-09-06 00:01:00,64.2,63.1,30.18,North,0,0.0,0.0,96,0.00,CLR,,0.00,WeatherDisplay:10.37,2013-09-06 04:01:00,
2013-09-06 00:02:00,64.2,63.1,30.18,North,0,0.0,0.0,96,0.00,CLR,,0.00,WeatherDisplay:10.37,2013-09-06 04:02:00,
2013-09-06 00:07:00,64.0,62.6,30.15,North,0,0.0,0.0,95,0.00,CLR,,0.00,WeatherDisplay:10.37,2013-09-06 04:07:00,
2013-09-06 00:12:00,64.0,62.6,30.15,NW,315,0.0,0.0,95,0.00,CLR,,0.00,WeatherDisplay:10.37,2013-09-06 04:12:00,
2013-09-06 00:17:00,64.2,62.8,30.15,NW,315,0.0,0.0,95,0.00,CLR,,0.00,WeatherDisplay:10.37,2013-09-06 04:17:00,
2013-09-06 00:22:00,64.2,62.8,30.18,WNW,292,0.0,0.0,95,0.00,CLR,,0.00,WeatherDisplay:10.37,2013-09-06 04:22:00,
2013-09-06 00:27:00,64.0,62.6,30.18,West,270,0.0,0.0,95,0.00,CLR,,0.00,WeatherDisplay:10.37,2013-09-06 04:27:00,
2013-09-06 00:32:00,64.0,62.6,30.18,West,270,0.0,0.0,95,0.00,CLR,,0.00,WeatherDisplay:10.37,2013-09-06 04:32:00,
2013-09-06 00:37:00,63.9,62.4,30.18,West,270,0.0,0.0,95,0.00,CLR,,0.00,WeatherDisplay:10.37,2013-09-06 04:37:00,
2013-09-06 00:42:00,63.9,62.4,30.18,West,270,0.0,0.0,95,0.00,CLR,,0.00,WeatherDisplay:10.37,2013-09-06 04:42:00,
2013-09-06 00:47:00,63.7,62.2,30.18,West,270,0.0,0.0,95,0.00,CLR,,0.00,WeatherDisplay:10.37,2013-09-06 04:47:00,
2013-09-06 00:52:00,63.5,62.0,30.18,West,270,0.0,0.0,95,0.00,CLR,,0.00,WeatherDisplay:10.37,2013-09-06 04:52:00,
2013-09-06 00:57:00,63.5,62.0,30.18,West,270,0.0,0.0,95,0.00,CLR,,0.00,WeatherDisplay:10.37,2013-09-06 04:57:00,
2013-09-06 01:02:00,63.3,61.9,30.18,West,270,0.0,0.0,95,0.00,CLR,,0.00,WeatherDisplay:10.37,2013-09-06 05:02:00,
2013-09-06 01:07:00,63.1,61.7,30.18,West,270,0.0,0.0,95,0.00,CLR,,0.00,WeatherDisplay:10.37,2013-09-06 05:07:00,
2013-09-06 01:12:00,63.1,61.7,30.18,WSW,248,0.0,0.0,95,0.00,CLR,,0.00,WeatherDisplay:10.37,2013-09-06 05:12:00,
2013-09-06 01:17:00,63.1,61.7,30.18,WSW,248,0.0,0.0,95,0.00,CLR,,0.00,WeatherDisplay:10.37,2013-09-06 05:17:00,
2013-09-06 01:23:00,63.0,61.8,30.18,WNW,292,0.0,0.0,96,0.00,CLR,,0.00,WeatherDisplay:10.37,2013-09-06 05:23:00,
2013-09-06 01:28:00,63.0,61.8,30.18,WNW,292,0.0,0.0,96,0.00,CLR,,0.00,WeatherDisplay:10.37,2013-09-06 05:28:00,
2013-09-06 01:33:00,62.8,61.6,30.18,WNW,292,0.0,0.0,96,0.00,CLR,,0.00,WeatherDisplay:10.37,2013-09-06 05:33:00,
2013-09-06 01:38:00,62.6,61.4,30.18,WNW,292,0.0,0.0,96,0.00,CLR,,0.00,WeatherDisplay:10.37,2013-09-06 05:38:00,
2013-09-06 01:43:00,62.6,61.4,30.18,WNW,292,0.0,0.0,96,0.00,CLR,,0.00,WeatherDisplay:10.37,2013-09-06 05:43:00,
2013-09-06 01:48:00,62.4,61.6,30.18,WNW,292,0.0,0.0,97,0.00,CLR,,0.00,WeatherDisplay:10.37,2013-09-06 05:48:00,
2013-09-06 01:53:00,62.2,61.4,30.18,WNW,292,0.0,0.0,97,0.00,CLR,,0.00,WeatherDisplay:10.37,2013-09-06 05:53:00,
2013-09-06 01:58:00,62.2,61.4,30.18,WNW,292,0.0,0.0,97,0.00,CLR,,0.00,WeatherDisplay:10.37,2013-09-06 05:58:00,
2013-09-06 02:03:00,62.2,61.4,30.18,WNW,292,0.0,0.0,97,0.00,CLR,,0.00,WeatherDisplay:10.37,2013-09-06 06:03:00,
2013-09-06 02:08:00,62.2,61.4,30.18,WNW,292,0.0,0.0,97,0.00,CLR,,0.00,WeatherDisplay:10.37,2013-09-06 06:08:00,
2013-09-06 02:13:00,62.2,61.4,30.18,WNW,292,0.0,0.0,97,0.00,CLR,,0.00,WeatherDisplay:10.37,2013-09-06 06:13:00,
2013-09-06 02:18:00,62.2,61.4,30.18,NW,315,0.0,0.0,97,0.00,CLR,,0.00,WeatherDisplay:10.37,2013-09-06 06:18:00,
2013-09-06 02:23:00,62.2,61.4,30.18,North,0,0.0,0.0,97,0.00,CLR,,0.00,WeatherDisplay:10.37,2013-09-06 06:23:00,
2013-09-06 02:28:00,62.2,61.4,30.18,NNW,338,0.0,0.0,97,0.00,CLR,,0.00,WeatherDisplay:10.37,2013-09-06 06:28:00,
2013-09-06 02:33:00,62.4,61.6,30.18,NNW,338,0.0,0.0,97,0.00,CLR,,0.00,WeatherDisplay:10.37,2013-09-06 06:33:00,
2013-09-06 02:38:00,62.4,61.6,30.18,NNW,338,0.0,0.0,97,0.00,CLR,,0.00,WeatherDisplay:10.37,2013-09-06 06:38:00,
2013-09-06 02:43:00,62.4,61.6,30.18,NNW,338,0.0,0.0,97,0.00,CLR,,0.00,WeatherDisplay:10.37,2013-09-06 06:43:00,
2013-09-06 02:48:00,62.6,61.4,30.18,NNW,338,0.0,0.0,96,0.00,CLR,,0.00,WeatherDisplay:10.37,2013-09-06 06:48:00,
2013-09-06 02:53:00,62.4,61.6,30.18,NNW,338,0.0,0.0,97,0.00,CLR,,0.00,WeatherDisplay:10.37,2013-09-06 06:53:00,
2013-09-06 02:58:00,62.6,61.4,30.18,NNE,22,1.6,1.6,96,0.00,CLR,,0.00,WeatherDisplay:10.37,2013-09-06 06:58:00,
2013-09-06 03:03:00,62.6,61.7,30.18,NNE,22,1.4,2.2,97,0.00,CLR,,0.00,WeatherDisplay:10.37,2013-09-06 07:03:00,
2013-09-06 03:08:00,62.6,61.7,30.18,NNE,22,0.0,0.0,97,0.00,CLR,,0.00,WeatherDisplay:10.37,2013-09-06 07:08:00,
2013-09-06 03:13:00,62.4,61.6,30.18,NNE,22,0.0,0.0,97,0.00,CLR,,0.00,WeatherDisplay:10.37,2013-09-06 07:13:00,
2013-09-06 03:18:00,62.4,61.6,30.18,NNE,22,0.0,0.0,97,0.00,CLR,,0.00,WeatherDisplay:10.37,2013-09-06 07:18:00,
2013-09-06 03:23:00,62.6,61.4,30.18,NE,45,1.6,2.3,96,0.00,CLR,,0.00,WeatherDisplay:10.37,2013-09-06 07:23:00,
2013-09-06 03:28:00,63.0,62.1,30.18,NNE,22,0.0,0.0,97,0.00,CLR,,0.00,WeatherDisplay:10.37,2013-09-06 07:28:00,
2013-09-06 03:33:00,63.1,62.0,30.18,NNE,22,0.0,1.2,96,0.00,CLR,,0.00,WeatherDisplay:10.37,2013-09-06 07:33:00,
2013-09-06 03:38:00,63.5,62.3,30.18,East,90,0.0,1.2,96,0.00,CLR,,0.00,WeatherDisplay:10.37,2013-09-06 07:38:00,
2013-09-06 03:43:00,63.5,62.0,30.18,NNE,22,0.0,1.2,95,0.00,CLR,,0.00,WeatherDisplay:10.37,2013-09-06 07:43:00,
2013-09-06 03:48:00,63.5,62.0,30.18,North,0,0.0,0.0,95,0.00,CLR,,0.00,WeatherDisplay:10.37,2013-09-06 07:48:00,
2013-09-06 03:53:00,63.3,61.9,30.18,North,0,0.0,0.0,95,0.00,CLR,,0.00,WeatherDisplay:10.37,2013-09-06 07:53:00,
2013-09-06 03:58:00,63.1,61.7,30.18,NNW,338,0.0,0.0,95,0.00,CLR,,0.00,WeatherDisplay:10.37,2013-09-06 07:58:00,
2013-09-06 04:03:00,63.0,61.5,30.18,ENE,68,0.0,0.0,95,0.00,CLR,,0.00,WeatherDisplay:10.37,2013-09-06 08:03:00,
2013-09-06 04:08:00,63.0,61.5,30.18,NW,315,0.0,0.0,95,0.00,CLR,,0.00,WeatherDisplay:10.37,2013-09-06 08:08:00,
2013-09-06 04:13:00,62.8,61.3,30.18,NNW,338,0.0,0.0,95,0.00,CLR,,0.00,WeatherDisplay:10.37,2013-09-06 08:13:00,
2013-09-06 04:18:00,63.0,61.5,30.18,NW,315,0.0,0.0,95,0.00,CLR,,0.00,WeatherDisplay:10.37,2013-09-06 08:18:00,
2013-09-06 04:23:00,62.8,61.3,30.18,NW,315,0.0,0.0,95,0.00,CLR,,0.00,WeatherDisplay:10.37,2013-09-06 08:23:00,
2013-09-06 04:28:00,62.6,61.1,30.18,NW,315,0.0,0.0,95,0.00,CLR,,0.00,WeatherDisplay:10.37,2013-09-06 08:28:00,
2013-09-06 04:33:00,62.6,61.1,30.18,NW,315,0.0,0.0,95,0.00,CLR,,0.00,WeatherDisplay:10.37,2013-09-06 08:33:00,
2013-09-06 04:38:00,62.8,61.3,30.18,NE,45,1.2,1.2,95,0.00,CLR,,0.00,WeatherDisplay:10.37,2013-09-06 08:38:00,
2013-09-06 04:43:00,62.8,61.0,30.18,ENE,68,0.0,0.0,94,0.00,CLR,,0.00,WeatherDisplay:10.37,2013-09-06 08:43:00,
2013-09-06 04:48:00,62.6,60.8,30.18,North,0,0.0,1.2,94,0.00,CLR,,0.00,WeatherDisplay:10.37,2013-09-06 08:48:00,
2013-09-06 04:53:00,62.6,60.8,30.18,NNE,22,0.0,1.2,94,0.00,CLR,,0.00,WeatherDisplay:10.37,2013-09-06 08:53:00,
2013-09-06 04:58:00,62.4,61.0,30.18,NNE,22,0.0,0.0,95,0.00,CLR,,0.00,WeatherDisplay:10.37,2013-09-06 08:58:00,
2013-09-06 05:03:00,62.2,60.5,30.18,North,0,0.0,1.2,94,0.00,CLR,,0.00,WeatherDisplay:10.37,2013-09-06 09:03:00,
2013-09-06 05:08:00,62.2,60.5,30.18,North,0,0.0,0.0,94,0.00,CLR,,0.00,WeatherDisplay:10.37,2013-09-06 09:08:00,
2013-09-06 05:13:00,62.2,60.5,30.18,NNW,338,0.0,1.2,94,0.00,CLR,,0.00,WeatherDisplay:10.37,2013-09-06 09:13:00,
2013-09-06 05:18:00,62.1,60.6,30.18,NW,315,0.0,0.0,95,0.00,CLR,,0.00,WeatherDisplay:10.37,2013-09-06 09:18:00,
2013-09-06 05:23:00,62.1,60.3,30.21,NW,315,0.0,0.0,94,0.00,CLR,,0.00,WeatherDisplay:10.37,2013-09-06 09:23:00,
2013-09-06 05:28:00,62.1,60.3,30.21,NW,315,0.9,2.3,94,0.00,CLR,,0.00,WeatherDisplay:10.37,2013-09-06 09:28:00,
2013-09-06 05:33:00,62.1,60.3,30.21,NW,315,0.0,0.0,94,0.00,CLR,,0.00,WeatherDisplay:10.37,2013-09-06 09:33:00,
2013-09-06 05:38:00,62.1,60.0,30.21,ESE,112,0.0,1.2,93,0.00,CLR,,0.00,WeatherDisplay:10.37,2013-09-06 09:38:00,
2013-09-06 05:43:00,62.2,60.2,30.21,NW,315,0.0,1.2,93,0.00,CLR,,0.00,WeatherDisplay:10.37,2013-09-06 09:43:00,
2013-09-06 05:48:00,61.9,59.8,30.21,NW,315,0.0,2.3,93,0.00,CLR,,0.00,WeatherDisplay:10.37,2013-09-06 09:48:00,
2013-09-06 05:53:00,61.9,59.8,30.21,NW,315,0.0,0.0,93,0.00,CLR,,0.00,WeatherDisplay:10.37,2013-09-06 09:53:00,
2013-09-06 05:58:00,61.9,59.5,30.21,NE,45,1.4,2.4,92,0.00,CLR,,0.00,WeatherDisplay:10.37,2013-09-06 09:58:00,
2013-09-06 06:03:00,61.9,59.5,30.21,NW,315,0.9,2.3,92,0.00,CLR,,0.00,WeatherDisplay:10.37,2013-09-06 10:03:00,
2013-09-06 06:08:00,62.2,59.6,30.21,NE,45,0.0,1.2,91,0.00,CLR,,0.00,WeatherDisplay:10.37,2013-09-06 10:08:00,
2013-09-06 06:13:00,62.2,59.3,30.21,NNE,22,1.6,0.0,90,0.00,CLR,,0.00,WeatherDisplay:10.37,2013-09-06 10:13:00,
2013-09-06 06:18:00,62.4,59.1,30.21,NNE,22,1.6,0.0,89,0.00,CLR,,0.00,WeatherDisplay:10.37,2013-09-06 10:18:00,
2013-09-06 06:23:00,62.2,59.0,30.21,NW,315,0.0,1.2,89,0.00,CLR,,0.00,WeatherDisplay:10.37,2013-09-06 10:23:00,
2013-09-06 06:28:00,62.2,59.0,30.21,NW,315,0.0,0.0,89,0.00,CLR,,0.00,WeatherDisplay:10.37,2013-09-06 10:28:00,
2013-09-06 06:33:00,62.1,58.5,30.21,NNW,338,0.0,0.0,88,0.00,CLR,,0.00,WeatherDisplay:10.37,2013-09-06 10:33:00,
2013-09-06 06:38:00,61.7,58.4,30.21,North,0,0.0,0.0,89,0.00,CLR,,0.00,WeatherDisplay:10.37,2013-09-06 10:38:00,
2013-09-06 06:43:00,61.7,58.7,30.21,NW,315,0.0,1.2,90,0.00,CLR,,0.00,WeatherDisplay:10.37,2013-09-06 10:43:00,
2013-09-06 06:48:00,61.3,58.1,30.21,WNW,292,0.0,0.0,89,0.00,CLR,,0.00,WeatherDisplay:10.37,2013-09-06 10:48:00,
2013-09-06 06:53:00,61.2,57.9,30.18,NNW,338,0.9,1.2,89,0.00,CLR,,0.00,WeatherDisplay:10.37,2013-09-06 10:53:00,
2013-09-06 06:58:00,61.2,58.2,30.18,NNE,22,0.0,0.0,90,0.00,CLR,,0.00,WeatherDisplay:10.37,2013-09-06 10:58:00,
2013-09-06 07:03:00,61.0,58.0,30.18,ENE,68,0.0,3.6,90,0.00,CLR,,0.00,WeatherDisplay:10.37,2013-09-06 11:03:00,
2013-09-06 07:08:00,61.2,58.2,30.21,NNE,22,0.0,0.0,90,0.00,CLR,,0.00,WeatherDisplay:10.37,2013-09-06 11:08:00,
2013-09-06 07:13:00,61.2,58.2,30.21,North,0,0.0,0.0,90,0.00,CLR,,0.00,WeatherDisplay:10.37,2013-09-06 11:13:00,
2013-09-06 07:18:00,61.0,58.0,30.21,WNW,292,0.0,0.0,90,0.00,CLR,,0.00,WeatherDisplay:10.37,2013-09-06 11:18:00,
2013-09-06 07:23:00,61.0,58.3,30.21,WNW,292,0.0,0.0,91,0.00,CLR,,0.00,WeatherDisplay:10.37,2013-09-06 11:23:00,
2013-09-06 07:28:00,61.0,58.3,30.21,WNW,292,0.0,0.0,91,0.00,CLR,,0.00,WeatherDisplay:10.37,2013-09-06 11:28:00,
2013-09-06 07:33:00,61.3,59.0,30.21,WNW,292,0.0,0.0,92,0.00,CLR,,0.00,WeatherDisplay:10.37,2013-09-06 11:33:00,
2013-09-06 07:38:00,63.0,60.3,30.24,WNW,292,0.0,0.0,91,0.00,CLR,,0.00,WeatherDisplay:10.37,2013-09-06 11:38:00,
2013-09-06 07:43:00,65.5,62.2,30.24,NNW,338,0.0,1.2,89,0.00,CLR,,0.00,WeatherDisplay:10.37,2013-09-06 11:43:00,
2013-09-06 07:48:00,66.6,62.6,30.24,ENE,68,0.0,1.2,87,0.00,CLR,,0.00,WeatherDisplay:10.37,2013-09-06 11:48:00,
2013-09-06 07:53:00,67.3,61.9,30.24,NE,45,0.9,2.3,83,0.00,CLR,,0.00,WeatherDisplay:10.37,2013-09-06 11:53:00,
2013-09-06 07:58:00,67.6,60.9,30.24,ENE,68,1.6,2.9,79,0.00,CLR,,0.00,WeatherDisplay:10.37,2013-09-06 11:58:00,
2013-09-06 08:03:00,67.3,60.5,30.24,NE,45,2.0,2.3,79,0.00,CLR,,0.00,WeatherDisplay:10.37,2013-09-06 12:03:00,
2013-09-06 08:08:00,68.0,60.5,30.27,NNW,338,0.0,0.0,77,0.00,CLR,,0.00,WeatherDisplay:10.37,2013-09-06 12:08:00,
2013-09-06 08:13:00,68.2,60.0,30.27,ENE,68,0.0,1.2,75,0.00,CLR,,0.00,WeatherDisplay:10.37,2013-09-06 12:13:00,
2013-09-06 08:18:00,68.4,60.1,30.27,NNE,22,1.4,1.4,75,0.00,CLR,,0.00,WeatherDisplay:10.37,2013-09-06 12:18:00,
2013-09-06 08:23:00,68.0,57.8,30.24,ENE,68,3.6,5.8,70,0.00,CLR,,0.00,WeatherDisplay:10.37,2013-09-06 12:23:00,
2013-09-06 08:28:00,68.2,58.0,30.24,NE,45,1.6,3.5,70,0.00,CLR,,0.00,WeatherDisplay:10.37,2013-09-06 12:28:00,
2013-09-06 08:33:00,69.1,58.9,30.24,NE,45,2.0,3.5,70,0.00,CLR,,0.00,WeatherDisplay:10.37,2013-09-06 12:33:00,
2013-09-06 08:38:00,68.9,57.1,30.27,NE,45,2.4,5.8,66,0.00,CLR,,0.00,WeatherDisplay:10.37,2013-09-06 12:38:00,
2013-09-06 08:43:00,69.3,57.4,30.27,ENE,68,1.6,3.5,66,0.00,CLR,,0.00,WeatherDisplay:10.37,2013-09-06 12:43:00,
2013-09-06 08:48:00,69.6,56.0,30.27,East,90,3.6,4.6,62,0.00,CLR,,0.00,WeatherDisplay:10.37,2013-09-06 12:48:00,
2013-09-06 08:53:00,70.3,56.7,30.27,NE,45,2.4,4.0,62,0.00,CLR,,0.00,WeatherDisplay:10.37,2013-09-06 12:53:00,
2013-09-06 08:58:00,70.3,54.4,30.27,North,0,2.0,2.0,57,0.00,CLR,,0.00,WeatherDisplay:10.37,2013-09-06 12:58:00,
2013-09-06 09:03:00,70.5,55.5,30.27,ENE,68,3.3,3.5,59,0.00,CLR,,0.00,WeatherDisplay:10.37,2013-09-06 13:03:00,
2013-09-06 09:08:00,71.2,54.7,30.27,NNE,22,5.4,9.2,56,0.00,CLR,,0.00,WeatherDisplay:10.37,2013-09-06 13:08:00,
2013-09-06 09:13:00,71.2,54.7,30.27,NNE,22,2.9,5.8,56,0.00,CLR,,0.00,WeatherDisplay:10.37,2013-09-06 13:13:00,
2013-09-06 09:18:00,72.0,55.9,30.27,North,0,1.6,2.3,57,0.00,CLR,,0.00,WeatherDisplay:10.37,2013-09-06 13:18:00,
2013-09-06 09:23:00,72.7,55.6,30.27,NNE,22,2.0,2.3,55,0.00,CLR,,0.00,WeatherDisplay:10.37,2013-09-06 13:23:00,
2013-09-06 09:28:00,72.9,55.7,30.27,ENE,68,2.6,4.6,55,0.00,CLR,,0.00,WeatherDisplay:10.37,2013-09-06 13:28:00,
2013-09-06 09:33:00,73.8,56.1,30.27,ENE,68,2.4,5.4,54,0.00,CLR,,0.00,WeatherDisplay:10.37,2013-09-06 13:33:00,
2013-09-06 09:38:00,74.1,56.4,30.27,NW,315,1.6,2.3,54,0.00,CLR,,0.00,WeatherDisplay:10.37,2013-09-06 13:38:00,
2013-09-06 09:43:00,74.8,56.6,30.27,ENE,68,1.6,3.5,53,0.00,CLR,,0.00,WeatherDisplay:10.37,2013-09-06 13:43:00,
2013-09-06 09:48:00,75.2,56.9,30.27,NNE,22,1.2,2.3,53,0.00,CLR,,0.00,WeatherDisplay:10.37,2013-09-06 13:48:00,
2013-09-06 09:53:00,75.7,58.4,30.27,ENE,68,1.2,3.5,55,0.00,CLR,,0.00,WeatherDisplay:10.37,2013-09-06 13:53:00,
2013-09-06 09:58:00,76.6,58.7,30.27,ENE,68,0.0,1.6,54,0.00,CLR,,0.00,WeatherDisplay:10.37,2013-09-06 13:58:00,
2013-09-06 10:03:00,75.9,55.4,30.27,NNE,22,0.9,1.2,49,0.00,CLR,,0.00,WeatherDisplay:10.37,2013-09-06 14:03:00,
2013-09-06 10:08:00,77.0,57.5,30.27,NNE,22,2.4,2.4,51,0.00,CLR,,0.00,WeatherDisplay:10.37,2013-09-06 14:08:00,
2013-09-06 10:13:00,77.4,56.7,30.27,WNW,292,1.2,1.4,49,0.00,CLR,,0.00,WeatherDisplay:10.37,2013-09-06 14:13:00,
2013-09-06 10:18:00,77.4,57.3,30.27,NNE,22,2.2,2.6,50,0.00,CLR,,0.00,WeatherDisplay:10.37,2013-09-06 14:18:00,
2013-09-06 10:23:00,77.7,55.9,30.27,North,0,3.6,4.6,47,0.00,CLR,,0.00,WeatherDisplay:10.37,2013-09-06 14:23:00,
2013-09-06 10:28:00,78.8,57.4,30.27,SE,135,2.0,3.5,48,0.00,CLR,,0.00,WeatherDisplay:10.37,2013-09-06 14:28:00,
2013-09-06 10:33:00,78.4,55.9,30.27,ENE,68,3.6,5.9,46,0.00,CLR,,0.00,WeatherDisplay:10.37,2013-09-06 14:33:00,
2013-09-06 10:38:00,78.3,54.6,30.27,ENE,68,6.0,6.9,44,0.00,CLR,,0.00,WeatherDisplay:10.37,2013-09-06 14:38:00,
2013-09-06 10:43:00,79.0,55.2,30.27,NNE,22,4.3,5.8,44,0.00,CLR,,0.00,WeatherDisplay:10.37,2013-09-06 14:43:00,
2013-09-06 10:48:00,79.3,56.2,30.27,NNE,22,1.4,3.5,45,0.00,CLR,,0.00,WeatherDisplay:10.37,2013-09-06 14:48:00,
2013-09-06 10:53:00,80.6,57.3,30.27,WNW,292,2.0,2.3,45,0.00,CLR,,0.00,WeatherDisplay:10.37,2013-09-06 14:53:00,
2013-09-06 10:58:00,81.7,58.3,30.27,NNW,338,0.9,1.2,45,0.00,CLR,,0.00,WeatherDisplay:10.37,2013-09-06 14:58:00,
2013-09-06 11:03:00,81.9,57.8,30.27,NE,45,2.6,3.5,44,0.00,CLR,,0.00,WeatherDisplay:10.37,2013-09-06 15:03:00,
2013-09-06 11:08:00,81.3,56.0,30.24,ENE,68,4.7,5.8,42,0.00,CLR,,0.00,WeatherDisplay:10.37,2013-09-06 15:08:00,
2013-09-06 11:13:00,82.2,58.1,30.24,NW,315,0.9,2.4,44,0.00,CLR,,0.00,WeatherDisplay:10.37,2013-09-06 15:13:00,
2013-09-06 11:18:00,82.2,58.1,30.24,NNW,338,1.6,2.6,44,0.00,CLR,,0.00,WeatherDisplay:10.37,2013-09-06 15:18:00,
2013-09-06 11:23:00,81.1,55.9,30.27,NE,45,5.9,8.1,42,0.00,CLR,,0.00,WeatherDisplay:10.37,2013-09-06 15:23:00,
2013-09-06 11:28:00,81.3,56.7,30.27,ESE,112,2.6,4.6,43,0.00,CLR,,0.00,WeatherDisplay:10.37,2013-09-06 15:28:00,
2013-09-06 11:33:00,82.2,56.8,30.27,NE,45,6.0,8.1,42,0.00,CLR,,0.00,WeatherDisplay:10.37,2013-09-06 15:33:00,
2013-09-06 11:38:00,82.4,57.0,30.27,WSW,248,1.4,3.5,42,0.00,CLR,,0.00,WeatherDisplay:10.37,2013-09-06 15:38:00,
2013-09-06 11:43:00,82.6,56.5,30.27,North,0,2.9,4.6,41,0.00,CLR,,0.00,WeatherDisplay:10.37,2013-09-06 15:43:00,
2013-09-06 11:48:00,80.6,55.4,30.27,ENE,68,4.5,5.8,42,0.00,CLR,,0.00,WeatherDisplay:10.37,2013-09-06 15:48:00,
2013-09-06 11:53:00,81.5,56.2,30.27,NE,45,4.0,6.0,42,0.00,CLR,,0.00,WeatherDisplay:10.37,2013-09-06 15:53:00,
2013-09-06 11:58:00,82.0,56.0,30.27,ENE,68,3.1,3.5,41,0.00,CLR,,0.00,WeatherDisplay:10.37,2013-09-06 15:58:00,
2013-09-06 12:03:00,82.2,57.5,30.27,NW,315,2.9,5.8,43,0.00,CLR,,0.00,WeatherDisplay:10.37,2013-09-06 16:03:00,
2013-09-06 12:08:00,83.5,57.3,30.27,North,0,4.7,5.8,41,0.00,CLR,,0.00,WeatherDisplay:10.37,2013-09-06 16:08:00,
2013-09-06 12:13:00,83.5,58.0,30.27,ENE,68,1.4,2.3,42,0.00,CLR,,0.00,WeatherDisplay:10.37,2013-09-06 16:13:00,
2013-09-06 12:18:00,84.4,58.1,30.27,ENE,68,3.8,4.9,41,0.00,CLR,,0.00,WeatherDisplay:10.37,2013-09-06 16:18:00,
2013-09-06 12:24:00,83.7,56.8,30.27,ENE,68,2.9,5.6,40,0.00,CLR,,0.00,WeatherDisplay:10.37,2013-09-06 16:24:00,
2013-09-06 12:29:00,82.8,56.0,30.27,ENE,68,6.7,6.9,40,0.00,CLR,,0.00,WeatherDisplay:10.37,2013-09-06 16:29:00,
2013-09-06 12:34:00,83.3,57.1,30.27,NE,45,2.4,3.6,41,0.00,CLR,,0.00,WeatherDisplay:10.37,2013-09-06 16:34:00,
2013-09-06 12:39:00,83.5,56.6,30.27,East,90,3.6,5.8,40,0.00,CLR,,0.00,WeatherDisplay:10.37,2013-09-06 16:39:00,
2013-09-06 12:44:00,84.0,57.8,30.27,ENE,68,2.6,3.8,41,0.00,CLR,,0.00,WeatherDisplay:10.37,2013-09-06 16:44:00,
2013-09-06 12:49:00,84.9,58.6,30.27,NNW,338,2.2,3.5,41,0.00,CLR,,0.00,WeatherDisplay:10.37,2013-09-06 16:49:00,
2013-09-06 12:54:00,84.4,57.4,30.27,ENE,68,5.6,6.2,40,0.00,CLR,,0.00,WeatherDisplay:10.37,2013-09-06 16:54:00,
2013-09-06 12:59:00,84.2,57.3,30.27,ENE,68,3.1,5.9,40,0.00,CLR,,0.00,WeatherDisplay:10.37,2013-09-06 16:59:00,
2013-09-06 13:04:00,83.1,56.3,30.27,ENE,68,3.6,8.1,40,0.00,CLR,,0.00,WeatherDisplay:10.37,2013-09-06 17:04:00,
2013-09-06 13:09:00,83.3,56.5,30.27,ENE,68,4.3,7.6,40,0.00,CLR,,0.00,WeatherDisplay:10.37,2013-09-06 17:09:00,
2013-09-06 13:14:00,83.1,57.0,30.27,ENE,68,2.6,5.8,41,0.00,CLR,,0.00,WeatherDisplay:10.37,2013-09-06 17:14:00,
2013-09-06 13:19:00,83.3,57.1,30.27,ENE,68,3.1,6.0,41,0.00,CLR,,0.00,WeatherDisplay:10.37,2013-09-06 17:19:00,
2013-09-06 13:24:00,84.0,57.8,30.27,ENE,68,0.0,4.9,41,0.00,CLR,,0.00,WeatherDisplay:10.37,2013-09-06 17:24:00,
2013-09-06 13:29:00,83.3,56.5,30.27,ENE,68,5.4,6.9,40,0.00,CLR,,0.00,WeatherDisplay:10.37,2013-09-06 17:29:00,
2013-09-06 13:34:00,83.5,57.3,30.27,NE,45,2.2,5.8,41,0.00,CLR,,0.00,WeatherDisplay:10.37,2013-09-06 17:34:00,
2013-09-06 13:39:00,85.5,59.1,30.24,NNW,338,1.4,2.3,41,0.00,CLR,,0.00,WeatherDisplay:10.37,2013-09-06 17:39:00,
2013-09-06 13:44:00,87.3,60.7,30.24,NNW,338,0.0,2.3,41,0.00,CLR,,0.00,WeatherDisplay:10.37,2013-09-06 17:44:00,
2013-09-06 13:49:00,87.4,60.8,30.24,ENE,68,2.0,3.5,41,0.00,CLR,,0.00,WeatherDisplay:10.37,2013-09-06 17:49:00,
2013-09-06 13:54:00,87.4,60.2,30.24,ENE,68,3.1,5.8,40,0.00,CLR,,0.00,WeatherDisplay:10.37,2013-09-06 17:54:00,
2013-09-06 13:59:00,88.2,60.8,30.24,NNW,338,1.4,1.4,40,0.00,CLR,,0.00,WeatherDisplay:10.37,2013-09-06 17:59:00,
2013-09-06 14:04:00,88.7,60.6,30.24,NW,315,1.6,2.3,39,0.00,CLR,,0.00,WeatherDisplay:10.37,2013-09-06 18:04:00,
2013-09-06 14:09:00,88.7,60.6,30.21,NNW,338,1.6,2.3,39,0.00,CLR,,0.00,WeatherDisplay:10.37,2013-09-06 18:09:00,
2013-09-06 14:14:00,89.2,60.3,30.21,East,90,3.1,4.6,38,0.00,CLR,,0.00,WeatherDisplay:10.37,2013-09-06 18:14:00,
2013-09-06 14:19:00,88.2,59.4,30.21,ENE,68,2.6,3.5,38,0.00,CLR,,0.00,WeatherDisplay:10.37,2013-09-06 18:19:00,
2013-09-06 14:24:00,87.1,58.4,30.21,ENE,68,3.3,5.8,38,0.00,CLR,,0.00,WeatherDisplay:10.37,2013-09-06 18:24:00,
2013-09-06 14:29:00,88.5,58.9,30.21,NE,45,4.5,8.1,37,0.00,CLR,,0.00,WeatherDisplay:10.37,2013-09-06 18:29:00,
2013-09-06 14:34:00,87.8,59.0,30.21,NNE,22,1.6,3.5,38,0.00,CLR,,0.00,WeatherDisplay:10.37,2013-09-06 18:34:00,
2013-09-06 14:39:00,86.7,58.1,30.18,NNE,22,2.2,3.5,38,0.00,CLR,,0.00,WeatherDisplay:10.37,2013-09-06 18:39:00,
2013-09-06 14:44:00,84.2,56.6,30.18,NE,45,0.0,1.2,39,0.00,CLR,,0.00,WeatherDisplay:10.37,2013-09-06 18:44:00,
2013-09-06 14:49:00,87.6,59.6,30.18,NNE,22,2.2,3.5,39,0.00,CLR,,0.00,WeatherDisplay:10.37,2013-09-06 18:49:00,
2013-09-06 14:54:00,84.4,56.0,30.21,ENE,68,4.0,4.6,38,0.00,CLR,,0.00,WeatherDisplay:10.37,2013-09-06 18:54:00,
2013-09-06 14:59:00,83.3,56.5,30.21,East,90,2.2,2.9,40,0.00,CLR,,0.00,WeatherDisplay:10.37,2013-09-06 18:59:00,
2013-09-06 15:04:00,85.6,57.8,30.21,NE,45,2.4,2.4,39,0.00,CLR,,0.00,WeatherDisplay:10.37,2013-09-06 19:04:00,
2013-09-06 15:09:00,85.6,57.8,30.21,North,0,1.4,3.5,39,0.00,CLR,,0.00,WeatherDisplay:10.37,2013-09-06 19:09:00,
2013-09-06 15:14:00,85.3,58.2,30.21,NE,45,2.2,2.9,40,0.00,CLR,,0.00,WeatherDisplay:10.37,2013-09-06 19:14:00,
2013-09-06 15:19:00,84.4,57.4,30.21,ESE,112,0.0,0.0,40,0.00,CLR,,0.00,WeatherDisplay:10.37,2013-09-06 19:19:00,
2013-09-06 15:24:00,86.5,58.6,30.21,NNE,22,2.6,3.5,39,0.00,CLR,,0.00,WeatherDisplay:10.37,2013-09-06 19:24:00,
2013-09-06 15:29:00,85.6,57.8,30.21,NNE,22,4.3,6.9,39,0.00,CLR,,0.00,WeatherDisplay:10.37,2013-09-06 19:29:00,
2013-09-06 15:34:00,85.8,58.0,30.21,ENE,68,4.9,7.1,39,0.00,CLR,,0.00,WeatherDisplay:10.37,2013-09-06 19:34:00,
2013-09-06 15:39:00,84.6,56.9,30.21,ENE,68,2.2,2.9,39,0.00,CLR,,0.00,WeatherDisplay:10.37,2013-09-06 19:39:00,
2013-09-06 15:44:00,81.5,55.5,30.21,NNE,22,1.2,1.2,41,0.00,CLR,,0.00,WeatherDisplay:10.37,2013-09-06 19:44:00,
2013-09-06 15:49:00,83.1,57.0,30.21,SSE,158,0.0,0.0,41,0.00,CLR,,0.00,WeatherDisplay:10.37,2013-09-06 19:49:00,
2013-09-06 15:54:00,86.4,59.2,30.21,West,270,2.0,3.5,40,0.00,CLR,,0.00,WeatherDisplay:10.37,2013-09-06 19:54:00,
2013-09-06 15:59:00,87.4,59.4,30.21,SE,135,0.0,1.6,39,0.00,CLR,,0.00,WeatherDisplay:10.37,2013-09-06 19:59:00,
2013-09-06 16:04:00,88.0,59.9,30.21,NE,45,3.3,5.8,39,0.00,CLR,,0.00,WeatherDisplay:10.37,2013-09-06 20:04:00,
2013-09-06 16:09:00,84.4,56.0,30.18,NNE,22,6.0,6.9,38,0.00,CLR,,0.00,WeatherDisplay:10.37,2013-09-06 20:09:00,
2013-09-06 16:14:00,81.0,54.4,30.18,ENE,68,2.0,3.5,40,0.00,CLR,,0.00,WeatherDisplay:10.37,2013-09-06 20:14:00,
2013-09-06 16:19:00,79.9,54.1,30.18,ENE,68,0.0,0.0,41,0.00,CLR,,0.00,WeatherDisplay:10.37,2013-09-06 20:19:00,
2013-09-06 16:24:00,79.2,54.1,30.18,ENE,68,0.0,0.0,42,0.00,CLR,,0.00,WeatherDisplay:10.37,2013-09-06 20:24:00,
2013-09-06 16:29:00,82.4,57.0,30.18,SSE,158,0.9,1.6,42,0.00,CLR,,0.00,WeatherDisplay:10.37,2013-09-06 20:29:00,
2013-09-06 16:34:00,83.7,57.5,30.18,East,90,3.8,4.6,41,0.00,CLR,,0.00,WeatherDisplay:10.37,2013-09-06 20:34:00,
2013-09-06 16:39:00,80.6,55.4,30.18,ENE,68,2.4,3.5,42,0.00,CLR,,0.00,WeatherDisplay:10.37,2013-09-06 20:39:00,
2013-09-06 16:44:00,79.2,54.1,30.18,North,0,0.0,0.0,42,0.00,CLR,,0.00,WeatherDisplay:10.37,2013-09-06 20:44:00,
2013-09-06 16:49:00,79.9,55.4,30.18,ENE,68,0.0,0.0,43,0.00,CLR,,0.00,WeatherDisplay:10.37,2013-09-06 20:49:00,
2013-09-06 16:54:00,82.0,56.7,30.18,North,0,0.0,2.3,42,0.00,CLR,,0.00,WeatherDisplay:10.37,2013-09-06 20:54:00,
2013-09-06 16:59:00,84.4,58.1,30.18,North,0,1.2,2.3,41,0.00,CLR,,0.00,WeatherDisplay:10.37,2013-09-06 20:59:00,
2013-09-06 17:04:00,84.9,58.6,30.18,ENE,68,2.6,3.5,41,0.00,CLR,,0.00,WeatherDisplay:10.37,2013-09-06 21:04:00,
2013-09-06 17:09:00,85.8,58.7,30.18,ENE,68,0.0,1.4,40,0.00,CLR,,0.00,WeatherDisplay:10.37,2013-09-06 21:09:00,
2013-09-06 17:14:00,84.7,57.7,30.18,East,90,0.9,1.2,40,0.00,CLR,,0.00,WeatherDisplay:10.37,2013-09-06 21:14:00,
2013-09-06 17:19:00,84.7,57.7,30.18,NNE,22,0.0,0.0,40,0.00,CLR,,0.00,WeatherDisplay:10.37,2013-09-06 21:19:00,
2013-09-06 17:24:00,86.0,58.2,30.18,NNE,22,0.0,1.6,39,0.00,CLR,,0.00,WeatherDisplay:10.37,2013-09-06 21:24:00,
2013-09-06 17:29:00,86.5,58.6,30.18,NNE,22,1.2,2.3,39,0.00,CLR,,0.00,WeatherDisplay:10.37,2013-09-06 21:29:00,
2013-09-06 17:34:00,86.9,59.0,30.18,ENE,68,0.9,2.6,39,0.00,CLR,,0.00,WeatherDisplay:10.37,2013-09-06 21:34:00,
2013-09-06 17:39:00,85.6,57.1,30.18,ENE,68,3.6,4.6,38,0.00,CLR,,0.00,WeatherDisplay:10.37,2013-09-06 21:39:00,
2013-09-06 17:45:00,84.2,56.6,30.18,NW,315,1.2,4.6,39,0.00,CLR,,0.00,WeatherDisplay:10.37,2013-09-06 21:45:00,
2013-09-06 17:50:00,84.4,56.7,30.18,ENE,68,0.9,1.2,39,0.00,CLR,,0.00,WeatherDisplay:10.37,2013-09-06 21:50:00,
2013-09-06 17:55:00,84.2,56.6,30.18,NE,45,1.6,2.6,39,0.00,CLR,,0.00,WeatherDisplay:10.37,2013-09-06 21:55:00,
2013-09-06 18:00:00,84.4,56.7,30.18,North,0,0.9,1.2,39,0.00,CLR,,0.00,WeatherDisplay:10.37,2013-09-06 22:00:00,
2013-09-06 18:05:00,83.7,56.1,30.18,NNE,22,2.4,5.8,39,0.00,CLR,,0.00,WeatherDisplay:10.37,2013-09-06 22:05:00,
2013-09-06 18:10:00,82.4,55.7,30.18,North,0,2.6,4.6,40,0.00,CLR,,0.00,WeatherDisplay:10.37,2013-09-06 22:10:00,
2013-09-06 18:15:00,81.9,55.2,30.18,NNE,22,1.6,3.5,40,0.00,CLR,,0.00,WeatherDisplay:10.37,2013-09-06 22:15:00,
2013-09-06 18:20:00,81.1,55.2,30.18,NNE,22,0.0,1.2,41,0.00,CLR,,0.00,WeatherDisplay:10.37,2013-09-06 22:20:00,
2013-09-06 18:25:00,80.4,55.2,30.18,NE,34,1.0,3.0,42,0.00,CLR,CLR,0.00,WeatherDisplay:10.37,2013-09-06 22:25:00,
2013-09-06 18:30:00,79.2,54.1,30.18,NE,42,1.0,2.0,42,0.00,CLR,CLR,0.00,WeatherDisplay:10.37,2013-09-06 22:30:00,
2013-09-06 18:35:00,77.7,53.4,30.18,NE,45,0.0,0.0,43,0.00,CLR,,0.00,WeatherDisplay:10.37,2013-09-06 22:35:00,
2013-09-06 18:40:00,77.4,53.7,30.18,NW,315,0.0,0.0,44,0.00,CLR,,0.00,WeatherDisplay:10.37,2013-09-06 22:40:00,
2013-09-06 18:45:00,77.4,54.4,30.18,NNW,338,1.2,1.2,45,0.00,CLR,,0.00,WeatherDisplay:10.37,2013-09-06 22:45:00,
2013-09-06 18:50:00,77.4,54.4,30.18,NNW,338,1.4,3.5,45,0.00,CLR,,0.00,WeatherDisplay:10.37,2013-09-06 22:50:00,
2013-09-06 18:55:00,76.5,54.1,30.18,North,5,0.0,1.0,46,0.00,CLR,CLR,0.00,WeatherDisplay:10.37,2013-09-06 22:55:00,
2013-09-06 19:00:00,75.1,54.0,30.18,NNE,22,0.0,1.0,48,0.00,CLR,CLR,0.00,WeatherDisplay:10.37,2013-09-06 23:00:00,
2013-09-06 19:05:00,73.8,54.0,30.18,NE,43,0.0,0.0,50,0.00,CLR,CLR,0.00,WeatherDisplay:10.37,2013-09-06 23:05:00,
2013-09-06 19:10:00,72.7,55.6,30.18,ENE,66,0.0,0.0,55,0.00,CLR,CLR,0.00,WeatherDisplay:10.37,2013-09-06 23:10:00,
2013-09-06 19:15:00,71.8,57.2,30.18,ENE,68,0.0,0.0,60,0.00,CLR,CLR,0.00,WeatherDisplay:10.37,2013-09-06 23:15:00,
2013-09-06 19:20:00,71.1,56.9,30.18,ENE,68,0.0,0.0,61,0.00,CLR,,0.00,WeatherDisplay:10.37,2013-09-06 23:20:00,
2013-09-06 19:25:00,70.3,57.1,30.15,ENE,68,0.0,0.0,63,0.00,CLR,,0.00,WeatherDisplay:10.37,2013-09-06 23:25:00,
2013-09-06 19:30:00,69.8,57.5,30.15,ENE,68,0.0,0.0,65,0.00,CLR,,0.00,WeatherDisplay:10.37,2013-09-06 23:30:00,
2013-09-06 19:35:00,69.1,58.1,30.15,ENE,68,0.0,0.0,68,0.00,CLR,,0.00,WeatherDisplay:10.37,2013-09-06 23:35:00,
2013-09-06 19:40:00,68.4,57.8,30.18,ENE,68,0.0,0.0,69,0.00,CLR,,0.00,WeatherDisplay:10.37,2013-09-06 23:40:00,
2013-09-06 19:45:00,68.0,57.8,30.18,NE,45,0.0,0.0,70,0.00,CLR,,0.00,WeatherDisplay:10.37,2013-09-06 23:45:00,
2013-09-06 19:50:00,67.5,57.7,30.18,NE,45,0.0,0.0,71,0.00,CLR,,0.00,WeatherDisplay:10.37,2013-09-06 23:50:00,
2013-09-06 19:55:00,67.1,58.1,30.15,NE,45,0.0,0.0,73,0.00,CLR,CLR,0.00,WeatherDisplay:10.37,2013-09-06 23:55:00,
2013-09-06 20:00:00,66.6,58.4,30.15,NE,45,0.0,0.0,75,0.00,CLR,,0.00,WeatherDisplay:10.37,2013-09-07 00:00:00,
2013-09-06 20:05:00,66.2,58.4,30.15,NE,45,0.0,0.0,76,0.00,CLR,CLR,0.00,WeatherDisplay:10.37,2013-09-07 00:05:00,
2013-09-06 20:10:00,65.8,58.4,30.18,NE,45,0.0,0.0,77,0.00,CLR,CLR,0.00,WeatherDisplay:10.37,2013-09-07 00:10:00,
2013-09-06 20:15:00,65.5,58.8,30.18,NE,45,0.0,0.0,79,0.00,CLR,CLR,0.00,WeatherDisplay:10.37,2013-09-07 00:15:00,
2013-09-06 20:20:00,65.1,58.4,30.18,NE,45,0.0,0.0,79,0.00,CLR,CLR,0.00,WeatherDisplay:10.37,2013-09-07 00:20:00,
2013-09-06 20:25:00,64.8,58.4,30.18,NE,45,0.0,0.0,80,0.00,CLR,CLR,0.00,WeatherDisplay:10.37,2013-09-07 00:25:00,
2013-09-06 20:30:00,64.4,58.4,30.18,NE,45,0.0,0.0,81,0.00,CLR,,0.00,WeatherDisplay:10.37,2013-09-07 00:30:00,
2013-09-06 20:35:00,64.0,58.4,30.18,NE,45,0.0,0.0,82,0.00,CLR,,0.00,WeatherDisplay:10.37,2013-09-07 00:35:00,
2013-09-06 20:40:00,63.9,58.6,30.18,NE,45,0.0,0.0,83,0.00,CLR,,0.00,WeatherDisplay:10.37,2013-09-07 00:40:00,
2013-09-06 20:45:00,63.5,58.2,30.18,NE,45,0.0,0.0,83,0.00,CLR,,0.00,WeatherDisplay:10.37,2013-09-07 00:45:00,
2013-09-06 20:50:00,63.3,58.4,30.18,NE,45,0.0,0.0,84,0.00,CLR,CLR,0.00,WeatherDisplay:10.37,2013-09-07 00:50:00,
2013-09-06 20:55:00,63.1,58.5,30.18,NE,45,0.0,0.0,85,0.00,CLR,CLR,0.00,WeatherDisplay:10.37,2013-09-07 00:55:00,
2013-09-06 21:00:00,62.8,58.5,30.18,NE,45,0.0,0.0,86,0.00,CLR,CLR,0.00,WeatherDisplay:10.37,2013-09-07 01:00:00,
2013-09-06 21:05:00,62.6,58.7,30.18,NE,45,0.0,0.0,87,0.00,CLR,,0.00,WeatherDisplay:10.37,2013-09-07 01:05:00,
2013-09-06 21:10:00,62.4,58.8,30.18,NE,45,0.0,0.0,88,0.00,CLR,CLR,0.00,WeatherDisplay:10.37,2013-09-07 01:10:00,
2013-09-06 21:15:00,62.2,58.6,30.18,NE,45,0.0,0.0,88,0.00,CLR,CLR,0.00,WeatherDisplay:10.37,2013-09-07 01:15:00,
2013-09-06 21:20:00,62.1,58.8,30.18,NE,45,0.0,0.0,89,0.00,CLR,CLR,0.00,WeatherDisplay:10.37,2013-09-07 01:20:00,
2013-09-06 21:25:00,61.9,58.9,30.18,NE,45,0.0,0.0,90,0.00,CLR,CLR,0.00,WeatherDisplay:10.37,2013-09-07 01:25:00,
2013-09-06 21:30:00,61.8,58.8,30.18,NE,45,0.0,0.0,90,0.00,CLR,CLR,0.00,WeatherDisplay:10.37,2013-09-07 01:30:00,
2013-09-06 21:35:00,61.7,58.7,30.18,NE,45,0.0,0.0,90,0.00,CLR,,0.00,WeatherDisplay:10.37,2013-09-07 01:35:00,
2013-09-06 21:40:00,61.5,58.9,30.21,NE,45,0.0,0.0,91,0.00,CLR,CLR,0.00,WeatherDisplay:10.37,2013-09-07 01:40:00,
2013-09-06 21:45:00,61.3,58.7,30.21,NE,45,0.0,0.0,91,0.00,CLR,CLR,0.00,WeatherDisplay:10.37,2013-09-07 01:45:00,
2013-09-06 21:50:00,61.3,58.7,30.21,NE,45,0.0,0.0,91,0.00,CLR,CLR,0.00,WeatherDisplay:10.37,2013-09-07 01:50:00,
2013-09-06 21:55:00,61.2,58.5,30.18,NE,45,0.0,0.0,91,0.00,CLR,CLR,0.00,WeatherDisplay:10.37,2013-09-07 01:55:00,
2013-09-06 22:00:00,61.0,58.6,30.18,NE,45,0.0,0.0,92,0.00,CLR,CLR,0.00,WeatherDisplay:10.37,2013-09-07 02:00:00,
2013-09-06 22:05:00,61.0,58.9,30.18,NE,45,0.0,0.0,93,0.00,CLR,CLR,0.00,WeatherDisplay:10.37,2013-09-07 02:05:00,
2013-09-06 22:10:00,60.8,58.8,30.18,NE,45,0.0,0.0,93,0.00,CLR,CLR,0.00,WeatherDisplay:10.37,2013-09-07 02:10:00,
2013-09-06 22:15:00,60.8,58.8,30.18,NE,45,0.0,0.0,93,0.00,CLR,CLR,0.00,WeatherDisplay:10.37,2013-09-07 02:15:00,
2013-09-06 22:20:00,60.6,58.9,30.18,NE,45,0.0,0.0,94,0.00,CLR,,0.00,WeatherDisplay:10.37,2013-09-07 02:20:00,
2013-09-06 22:25:00,60.6,58.9,30.18,NE,45,0.0,0.0,94,0.00,CLR,,0.00,WeatherDisplay:10.37,2013-09-07 02:25:00,
2013-09-06 22:30:00,60.4,58.7,30.18,NE,45,0.0,0.0,94,0.00,CLR,,0.00,WeatherDisplay:10.37,2013-09-07 02:30:00,
2013-09-06 22:35:00,60.4,58.7,30.18,NE,45,0.0,0.0,94,0.00,CLR,,0.00,WeatherDisplay:10.37,2013-09-07 02:35:00,
2013-09-06 22:40:00,60.4,58.7,30.18,NE,45,0.0,0.0,94,0.00,CLR,,0.00,WeatherDisplay:10.37,2013-09-07 02:40:00,
2013-09-06 22:45:00,60.3,58.5,30.18,NE,45,0.0,0.0,94,0.00,CLR,,0.00,WeatherDisplay:10.37,2013-09-07 02:45:00,
2013-09-06 22:50:00,60.1,58.3,30.18,NE,45,0.0,0.0,94,0.00,CLR,,0.00,WeatherDisplay:10.37,2013-09-07 02:50:00,
2013-09-06 22:55:00,60.1,58.6,30.18,NE,45,0.0,0.0,95,0.00,CLR,,0.00,WeatherDisplay:10.37,2013-09-07 02:55:00,
2013-09-06 23:00:00,60.1,58.6,30.18,NE,45,0.0,0.0,95,0.00,CLR,,0.00,WeatherDisplay:10.37,2013-09-07 03:00:00,
2013-09-06 23:05:00,59.9,58.5,30.18,NE,45,0.0,0.0,95,0.00,CLR,,0.00,WeatherDisplay:10.37,2013-09-07 03:05:00,
2013-09-06 23:10:00,59.7,58.3,30.21,NE,45,0.0,0.0,95,0.00,CLR,,0.00,WeatherDisplay:10.37,2013-09-07 03:10:00,
2013-09-06 23:15:00,59.7,58.3,30.21,NE,45,0.0,0.0,95,0.00,CLR,,0.00,WeatherDisplay:10.37,2013-09-07 03:15:00,
2013-09-06 23:20:00,59.7,58.3,30.21,NE,45,0.0,0.0,95,0.00,CLR,,0.00,WeatherDisplay:10.37,2013-09-07 03:20:00,
2013-09-06 23:25:00,59.7,58.3,30.21,NE,45,0.0,0.0,95,0.00,CLR,,0.00,WeatherDisplay:10.37,2013-09-07 03:25:00,
2013-09-06 23:30:00,59.5,58.1,30.21,NE,45,0.0,0.0,95,0.00,CLR,,0.00,WeatherDisplay:10.37,2013-09-07 03:30:00,
2013-09-06 23:35:00,59.5,58.1,30.21,NE,45,0.0,0.0,95,0.00,CLR,,0.00,WeatherDisplay:10.37,2013-09-07 03:35:00,
2013-09-06 23:40:00,59.5,58.4,30.18,NE,45,0.0,0.0,96,0.00,CLR,,0.00,WeatherDisplay:10.37,2013-09-07 03:40:00,
2013-09-06 23:45:00,59.4,57.9,30.18,NE,45,0.0,0.0,95,0.00,CLR,,0.00,WeatherDisplay:10.37,2013-09-07 03:45:00,
2013-09-06 23:50:00,59.4,58.2,30.18,NE,45,0.0,0.0,96,0.00,CLR,,0.00,WeatherDisplay:10.37,2013-09-07 03:50:00,
2013-09-06 23:55:00,59.4,58.2,30.18,NE,45,0.0,0.0,96,0.00,CLR,,0.00,WeatherDisplay:10.37,2013-09-07 03:55:00,